Regional Weather Roundup
Issued by NWS

Home | Current Version | Previous Version | Text Only | Print | Product List | Glossary Off
Versions: 1 2 3 4 5 6 7 8 9 10 11 12 13 14 15 16 17 18 19 20 21 22 23 24 25 26 27 28 29 30 31 32 33 34 35 36 37 38 39 40 41 42 43 44 45 46 47 48 49 50

000
ASUS43 KDMX 240301
RWRIA

WEATHER ROUNDUP FOR IOWA
NATIONAL WEATHER SERVICE DES MOINES IA
900 PM CST FRI FEB 23 2018

NOTE: "FAIR" INDICATES FEW OR NO CLOUDS BELOW 12,000 FEET WITH NO
SIGNIFICANT WEATHER AND/OR OBSTRUCTIONS TO VISIBILITY.

* - THESE STATIONS ARE NOT NWS STATIONS...THUS NOT UNDER NWS
QUALITY CONTROL.  THEY ALSO DO NOT REPORT WEATHER SUCH
AS PRECIPITATION OR FOG.

IAZ001>003-012>014-020>022-031>034-043>046-240400-
   NORTHWEST IOWA

CITY           SKY/WX    TMP DP  RH WIND       PRES   REMARKS
CARROLL *      CLOUDY    21  19  93 NE13      30.28F WCI   9
CHEROKEE *     CLOUDY    21  20  98 N7        30.29R WCI  12
DENISON *      CLOUDY    19  19 100 NE10G17   30.28F WCI   8
LE MARS *      CLOUDY    19  18  93 N8        30.30R FOG     WCI   9
ORANGE CITY *  CLOUDY    19  19 100 N5        30.27F FOG     WCI  13
SHELDON *      CLOUDY    18  18 100 N8        30.26S FOG     WCI   7
SIOUX CITY     CLOUDY    19  17  92 NE6       30.30R WCI  11
SPENCER        CLOUDY    21  18  88 NW10      30.28S WCI  10
STORM LAKE *   CLEAR     21  21 100 N8        30.27R WCI  12
$$

IAZ055>058-069>071-079>083-090>094-240400-
   SOUTHWEST IOWA

CITY           SKY/WX    TMP DP  RH WIND       PRES   REMARKS
ATLANTIC *     CLOUDY    23  23 100 NE9       30.28F WCI  13
AUDUBON *      CLOUDY    21  18  86 CALM      30.30R
CLARINDA *     CLOUDY    30  30 100 NE10      30.28S WCI  21
COUNCIL BLFS * CLOUDY    21  23 100 E10       30.27F FOG     WCI  10
CRESTON *      CLOUDY    27  25  93 NE10      30.26F WCI  17
HARLAN  *      CLOUDY    21  21 100 NE8       30.32R WCI  12
LAMONI         CLOUDY    30  26  85 N10       30.24F WCI  21
RED OAK *      CLOUDY    27  25  93 NE12G17   30.27F WCI  16
SHENANDOAH *   CLOUDY    28  27  93 NE12      30.27F WCI  18
$$

IAZ047>049-059>061-072>074-084-240400-
   CENTRAL IOWA

CITY           SKY/WX    TMP DP  RH WIND       PRES   REMARKS
AMES           CLOUDY    24  20  84 N12       30.30R WCI  13
ANKENY *       CLOUDY    27  23  86 CALM      30.33R
BOONE *        CLOUDY    23  21  93 MISG      30.27S
CHARITON *     CLOUDY    27  25  93 N13       30.27F WCI  16
DES MOINES     CLOUDY    26  21  81 N7        30.30S WCI  18
GRINNELL*      CLOUDY    27  24  89 N5        30.30R WCI  21
KNOXVILLE *    CLOUDY    27  23  86 NE7       30.28F WCI  19
MARSHALLTOWN   CLOUDY    25  22  88 N10       30.29R WCI  15
NEWTON *       CLOUDY    27  23  86 CALM      30.31R
PELLA *        CLOUDY    28  25  87 N6        30.31F WCI  22
PERRY *        CLOUDY    23  22  95 N7        30.31R WCI  15
$$

IAZ004>006-015-016-023>025-035-036-240400-
   NORTH CENTRAL IOWA

CITY           SKY/WX    TMP DP  RH WIND       PRES   REMARKS
CLARION *      CLOUDY    18  18 100 NW6       30.28S WCI   9
ESTHERVILLE    CLEAR     11   9  92 NW8       30.27F WCI  -1
FORT DODGE *   CLOUDY    19  17  92 CALM      30.29S
MASON CITY     CLOUDY    11  10  96 CALM      30.29S FOG
FOREST CITY *  FAIR      18  14  86 N6        30.27S WCI   9
WEBSTER CITY * CLOUDY    19  18  93 NW5       30.28R WCI  13
IOWA FALLS *   FAIR      24  21  90 NW6       30.29R WCI  17
$$

IAZ007>011-017>019-026>030-037>042-050>054-066-240400-
   NORTHEAST IOWA

CITY           SKY/WX    TMP DP  RH WIND       PRES   REMARKS
CEDAR RAPIDS   FAIR      26  21  81 NW5       30.28R WCI  20
CHARLES CITY * FAIR      21  21 100 NW3       30.29R
CLINTON *      FAIR      29  27  92 W6        30.29R WCI  23
DECORAH *      FAIR      23  21  93 NW6       30.27R WCI  16
DUBUQUE        FAIR      28  22  78 N8        30.26R WCI  20
MONTICELLO *   FAIR      28  25  86 NW3       30.28R
OELWEIN *      FAIR      27  27 100 N12       30.27S WCI  16
WATERLOO       FAIR      24  22  91 NW8       30.28S WCI  15
$$

IAZ064-065-067-068-078-240400-
   EAST CENTRAL IOWA

CITY           SKY/WX    TMP DP  RH WIND       PRES   REMARKS
DAVENPORT      FAIR      32  26  78 NW3       30.30R
IOWA CITY      FAIR      28  24  85 W3        30.32R
MT. PLEASANT * CLOUDY    32  30  93 N7        30.30S WCI  26
MUSCATINE *    FAIR      30  27  86 CALM      30.32R
QUAD CITIES    FAIR      31  27  85 CALM      30.29R
$$

IAZ062-063-075>077-085>089-095>099-240400-
   SOUTHEAST IOWA

CITY           SKY/WX    TMP DP  RH WIND       PRES   REMARKS
BURLINGTON     CLOUDY    33  28  81 N3        30.28R
FAIRFIELD *    PTCLDY    30  28  93 N7        30.29F WCI  23
FORT MADISON * PTCLDY    34  30  86 N3        30.29F
KEOKUK *       CLOUDY    34  32  93 NW3       30.27F
OSKALOOSA *    FAIR      28  26  91 N7        30.29F WCI  21
OTTUMWA        CLEAR     29  25  85 N7        30.29R WCI  22
WASHINGTON *   PTCLDY    30  30 100 N7        30.31S WCI  23
$$

ABBREVIATIONS USED IN REMARKS
   TC - TEMPERATURES IN CELSIUS
  WCI - WIND CHILL INDEX
   HX - HEAT INDEX
  VSB - VISIBILITY
$$





USA.gov is the U.S. government's official web portal to all federal, state and local government web resources and services.